When you browse on this site, cookies collect data to enhance your experience and personalize the content and advertising you see.
Visit our Privacy Policy to learn more. By continuing to use the site, you agree to this use of cookies and data.
  • In Lithuania
  • List of Countries
  • For 7 days
  • Water Temperature
  • Satellite Maps
  • Weather Map
  • Weather Widgets
  • user-avatar
    Login

    Hourly Weather Bedford

    Today, 25 June, Tuesday

    Time Temperature Precipitation Wind Pressure Humidity
    00:00 +20°C° 0 mm 1 mps 761 mmHg 93%
    01:00 +20°C° 0.7 mm 1 mps 760 mmHg 94%
    02:00 +19°C° 0.7 mm 1 mps 760 mmHg 96%
    03:00 +19°C° 0.7 mm 1 mps 759 mmHg 97%
    04:00 +18°C° 5.6 mm 2 mps 759 mmHg 97%
    05:00 +18°C° 5.6 mm 3 mps 759 mmHg 98%
    06:00 +18°C° 0 mm 3 mps 760 mmHg 97%
    07:00 +18°C° 1.4 mm 3 mps 760 mmHg 97%
    08:00 +18°C° 1.4 mm 3 mps 760 mmHg 97%
    09:00 +18°C° 1.4 mm 3 mps 760 mmHg 98%
    10:00 +17°C° 1.3 mm 3 mps 760 mmHg 98%
    11:00 +17°C° 1.3 mm 4 mps 761 mmHg 98%
    12:00 +17°C° 1.3 mm 4 mps 761 mmHg 98%
    13:00 +17°C° 0.1 mm 4 mps 761 mmHg 97%
    14:00 +18°C° 0.1 mm 4 mps 762 mmHg 96%
    15:00 +18°C° 0.1 mm 4 mps 762 mmHg 95%
    16:00 +18°C° 0 mm 4 mps 762 mmHg 95%
    17:00 +18°C° 0 mm 4 mps 762 mmHg 94%
    18:00 +18°C° 0 mm 4 mps 763 mmHg 94%
    19:00 +18°C° 0 mm 3 mps 763 mmHg 94%
    20:00 +17°C° 0 mm 3 mps 764 mmHg 95%
    21:00 +17°C° 0 mm 3 mps 764 mmHg 95%
    22:00 +17°C° 0 mm 3 mps 765 mmHg 95%
    23:00 +16°C° 0 mm 3 mps 765 mmHg 95%

    Tomorrow, 26 June, Wednesday

    Time Temperature Precipitation Wind Pressure Humidity
    00:00 +16°C° 0 mm 3 mps 765 mmHg 95%
    01:00 +16°C° 0 mm 3 mps 765 mmHg 95%
    02:00 +16°C° 0 mm 3 mps 766 mmHg 95%
    03:00 +16°C° 0 mm 3 mps 766 mmHg 95%
    04:00 +14°C° 0 mm 3 mps 766 mmHg 94%
    05:00 +14°C° 0 mm 4 mps 766 mmHg 94%
    06:00 +14°C° 0 mm 4 mps 767 mmHg 93%
    07:00 +15°C° 0 mm 5 mps 767 mmHg 92%
    08:00 +15°C° 0 mm 5 mps 768 mmHg 91%
    09:00 +16°C° 0 mm 5 mps 768 mmHg 90%
    10:00 +16°C° 0 mm 5 mps 768 mmHg 89%
    11:00 +16°C° 0 mm 6 mps 768 mmHg 88%
    12:00 +17°C° 0 mm 6 mps 769 mmHg 87%
    13:00 +16°C° 0 mm 6 mps 768 mmHg 87%
    14:00 +16°C° 0 mm 6 mps 768 mmHg 87%
    15:00 +16°C° 0 mm 6 mps 768 mmHg 87%
    16:00 +16°C° 0 mm 6 mps 768 mmHg 87%
    17:00 +15°C° 0 mm 6 mps 768 mmHg 87%
    18:00 +15°C° 0 mm 6 mps 768 mmHg 87%
    19:00 +14°C° 0 mm 6 mps 769 mmHg 89%
    20:00 +13°C° 0 mm 6 mps 769 mmHg 90%
    21:00 +12°C° 0 mm 5 mps 769 mmHg 92%
    22:00 +10°C° 0 mm 5 mps 769 mmHg 94%
    23:00 +10°C° 0 mm 5 mps 770 mmHg 95%

    Day after tomorrow, 27 June, Thursday

    Time Temperature Precipitation Wind Pressure Humidity
    00:00 +10°C° 0 mm 4 mps 770 mmHg 97%
    01:00 +10°C° 0 mm 4 mps 770 mmHg 96%
    02:00 +10°C° 0 mm 4 mps 769 mmHg 95%
    03:00 +10°C° 0 mm 4 mps 769 mmHg 95%
    04:00 +9°C° 0 mm 5 mps 769 mmHg 93%
    05:00 +10°C° 0 mm 5 mps 769 mmHg 90%
    06:00 +12°C° 0 mm 5 mps 769 mmHg 88%
    07:00 +13°C° 0 mm 5 mps 769 mmHg 84%
    08:00 +15°C° 0 mm 5 mps 770 mmHg 80%
    09:00 +16°C° 0 mm 6 mps 770 mmHg 76%
    10:00 +17°C° 0 mm 6 mps 770 mmHg 77%
    11:00 +19°C° 0 mm 6 mps 770 mmHg 77%
    12:00 +20°C° 0 mm 6 mps 769 mmHg 77%
    13:00 +21°C° 0 mm 6 mps 769 mmHg 77%
    14:00 +21°C° 0 mm 6 mps 769 mmHg 77%
    15:00 +21°C° 0 mm 6 mps 769 mmHg 77%
    16:00 +20°C° 0 mm 6 mps 768 mmHg 79%
    17:00 +19°C° 0 mm 6 mps 768 mmHg 81%
    18:00 +17°C° 0 mm 6 mps 768 mmHg 83%
    19:00 +16°C° 0 mm 6 mps 768 mmHg 86%
    20:00 +14°C° 0 mm 5 mps 768 mmHg 90%
    21:00 +12°C° 0 mm 5 mps 768 mmHg 93%
    22:00 +12°C° 0 mm 5 mps 768 mmHg 94%
    23:00 +10°C° 0 mm 5 mps 768 mmHg 96%

    28 June, Friday

    Time Temperature Precipitation Wind Pressure Humidity
    00:00 +10°C° 0 mm 4 mps 768 mmHg 97%
    01:00 +10°C° 0 mm 4 mps 768 mmHg 97%
    02:00 +10°C° 0 mm 4 mps 768 mmHg 98%
    03:00 +10°C° 0 mm 3 mps 767 mmHg 98%
    04:00 +10°C° 0 mm 4 mps 767 mmHg 97%
    05:00 +11°C° 0 mm 4 mps 767 mmHg 95%
    06:00 +12°C° 0 mm 5 mps 767 mmHg 93%
    07:00 +13°C° 0 mm 5 mps 767 mmHg 90%
    08:00 +15°C° 0 mm 5 mps 766 mmHg 86%
    09:00 +17°C° 0 mm 5 mps 766 mmHg 82%
    10:00 +19°C° 0 mm 5 mps 766 mmHg 79%
    11:00 +20°C° 0 mm 5 mps 766 mmHg 77%
    12:00 +21°C° 0 mm 5 mps 766 mmHg 75%
    13:00 +22°C° 0 mm 6 mps 765 mmHg 74%
    14:00 +22°C° 0 mm 6 mps 765 mmHg 74%
    15:00 +22°C° 0 mm 6 mps 765 mmHg 73%
    16:00 +21°C° 0 mm 5 mps 764 mmHg 75%
    17:00 +20°C° 0 mm 5 mps 764 mmHg 77%
    18:00 +20°C° 0 mm 5 mps 764 mmHg 79%
    19:00 +17°C° 0 mm 5 mps 764 mmHg 82%
    20:00 +15°C° 0 mm 4 mps 763 mmHg 85%
    21:00 +13°C° 0 mm 4 mps 763 mmHg 88%
    22:00 +13°C° 0 mm 4 mps 763 mmHg 90%
    23:00 +12°C° 0 mm 3 mps 763 mmHg 91%

    29 June, Saturday

    Time Temperature Precipitation Wind Pressure Humidity
    00:00 +12°C° 0 mm 3 mps 763 mmHg 93%
    01:00 +12°C° 0 mm 3 mps 762 mmHg 94%
    02:00 +12°C° 0 mm 3 mps 762 mmHg 94%
    03:00 +12°C° 0 mm 3 mps 762 mmHg 95%
    04:00 +13°C° 0 mm 3 mps 761 mmHg 93%
    05:00 +14°C° 0 mm 3 mps 761 mmHg 92%
    06:00 +16°C° 0 mm 3 mps 761 mmHg 90%
    07:00 +18°C° 0 mm 3 mps 760 mmHg 87%
    08:00 +20°C° 0 mm 3 mps 760 mmHg 83%
    09:00 +22°C° 0 mm 4 mps 760 mmHg 80%
    10:00 +23°C° 0 mm 4 mps 759 mmHg 77%
    11:00 +25°C° 0 mm 4 mps 759 mmHg 75%
    12:00 +27°C° 0 mm 4 mps 758 mmHg 72%
    13:00 +27°C° 0 mm 4 mps 758 mmHg 71%
    14:00 +28°C° 0 mm 4 mps 758 mmHg 69%
    15:00 +29°C° 0 mm 4 mps 757 mmHg 68%
    16:00 +28°C° 0 mm 3 mps 757 mmHg 72%
    17:00 +27°C° 0 mm 3 mps 756 mmHg 76%
    18:00 +26°C° 0 mm 3 mps 756 mmHg 80%
    19:00 +24°C° 0 mm 3 mps 756 mmHg 84%
    20:00 +21°C° 0 mm 3 mps 756 mmHg 88%
    21:00 +19°C° 0 mm 3 mps 756 mmHg 92%
    22:00 +19°C° 0 mm 4 mps 756 mmHg 93%
    23:00 +19°C° 0 mm 4 mps 755 mmHg 93%

    30 June, Sunday

    Time Temperature Precipitation Wind Pressure Humidity
    00:00 +19°C° 0 mm 4 mps 755 mmHg 94%
    01:00 +18°C° 0 mm 4 mps 755 mmHg 93%
    02:00 +15°C° 0 mm 4 mps 755 mmHg 93%
    03:00 +13°C° 0 mm 4 mps 755 mmHg 92%
    04:00 +14°C° 0 mm 4 mps 756 mmHg 91%
    05:00 +14°C° 0 mm 5 mps 756 mmHg 91%
    06:00 +14°C° 0 mm 5 mps 756 mmHg 90%
    07:00 +15°C° 0 mm 5 mps 757 mmHg 86%
    08:00 +16°C° 0 mm 5 mps 757 mmHg 83%
    09:00 +19°C° 0 mm 6 mps 757 mmHg 80%
    10:00 +19°C° 0 mm 6 mps 757 mmHg 79%
    11:00 +19°C° 0 mm 6 mps 757 mmHg 78%
    12:00 +20°C° 0 mm 6 mps 758 mmHg 78%
    13:00 +20°C° 0 mm 6 mps 758 mmHg 77%
    14:00 +21°C° 0 mm 6 mps 758 mmHg 76%
    15:00 +21°C° 0 mm 6 mps 757 mmHg 75%
    16:00 +21°C° 0 mm 6 mps 757 mmHg 77%
    17:00 +20°C° 0 mm 6 mps 757 mmHg 79%
    18:00 +20°C° 0 mm 5 mps 758 mmHg 81%
    19:00 +19°C° 0 mm 5 mps 758 mmHg 83%
    20:00 +16°C° 0 mm 5 mps 758 mmHg 86%
    21:00 +15°C° 0 mm 5 mps 758 mmHg 88%
    22:00 +14°C° 0 mm 4 mps 758 mmHg 91%
    23:00 +14°C° 0 mm 4 mps 758 mmHg 93%
    Show more